CDT,Max TemperatureF,Mean TemperatureF,Min TemperatureF,Max Dew PointF,MeanDew PointF,Min DewpointF,Max Humidity, Mean Humidity, Min Humidity, Max Sea Level PressureIn, Mean Sea Level PressureIn, Min Sea Level PressureIn, Max VisibilityMiles, Mean VisibilityMiles, Min VisibilityMiles, Max Wind SpeedMPH, Mean Wind SpeedMPH, Max Gust SpeedMPH,PrecipitationIn, CloudCover, Events, WindDirDegrees
2013-8-1,82,67,51,59,52,47,97,65,32,30.01,29.95,29.85,10,10,10,17,6,29,0.00,1,,283
2013-8-2,80,67,53,57,52,48,100,68,35,30.01,29.90,29.82,10,10,4,16,6,20,0.00,1,,322
2013-8-3,79,64,49,53,49,43,100,65,30,30.18,30.10,30.02,10,8,0,18,5,32,0.00,1,Fog,330
2013-8-4,76,61,46,53,49,46,100,69,38,30.25,30.18,30.06,10,6,0,14,5,17,0.00,1,Fog,102
2013-8-5,73,64,55,66,61,53,100,87,73,30.03,29.89,29.81,10,9,2,14,6,17,0.27,6,Rain-Thunderstorm,181
2013-8-6,83,72,61,68,62,54,100,72,43,29.83,29.78,29.68,10,7,2,28,7,39,0.10,5,Rain-Thunderstorm,231
2013-8-7,77,65,53,61,57,48,100,69,38,30.02,29.88,29.75,10,10,6,15,5,24,0.00,4,,314
2013-8-8,79,64,48,56,50,48,100,68,35,30.05,30.02,29.97,10,5,0,12,3,21,0.00,2,Fog,244
2013-8-9,79,68,56,59,53,47,100,66,32,30.10,30.02,29.97,10,10,8,16,6,20,0.00,4,,305
2013-8-10,76,66,55,54,51,45,86,62,38,30.17,30.13,30.09,10,10,10,13,3,17,0.00,6,,298
2013-8-11,78,67,55,62,57,53,100,75,50,30.11,30.06,29.99,10,10,10,8,2,20,0.00,5,,214
2013-8-12,81,67,53,63,58,50,100,68,36,30.06,30.00,29.96,10,5,0,28,6,36,0.02,4,Fog,327
2013-8-13,75,61,47,52,47,42,93,63,33,30.19,30.14,30.08,10,10,10,14,5,20,0.00,3,,9
2013-8-14,78,64,50,53,48,43,96,64,31,30.21,30.16,30.10,10,10,10,13,3,16,0.00,4,,24
2013-8-15,81,68,54,55,49,42,93,61,28,30.14,30.11,30.07,10,10,10,14,3,28,0.00,4,,244
2013-8-16,83,68,52,55,52,49,100,67,33,30.19,30.16,30.13,10,10,2,10,3,15,0.00,2,,236
2013-8-17,84,67,50,58,52,49,100,66,31,30.23,30.19,30.12,10,5,0,18,4,22,0.00,0,Fog,199
2013-8-18,84,68,51,57,54,50,100,67,34,30.17,30.12,30.03,10,7,0,18,7,24,0.00,0,Fog,192
2013-8-19,85,73,60,65,61,57,84,66,48,30.03,29.98,29.94,10,10,10,17,8,23,0.00,2,,200
2013-8-20,91,79,67,69,66,62,87,67,47,29.96,29.92,29.88,10,10,9,21,10,26,0.00,3,,181
2013-8-21,89,78,66,72,69,66,100,78,55,30.01,29.93,29.86,10,7,0,23,7,32,0.44,3,Fog-Rain-Thunderstorm,179
2013-8-22,85,73,60,66,62,51,100,66,32,30.12,30.05,30.00,10,4,0,12,4,15,0.00,1,Fog,35
2013-8-23,87,70,53,64,58,51,100,70,40,30.16,30.11,30.07,10,10,10,14,5,18,0.00,0,,145
2013-8-24,86,75,63,71,63,52,87,69,51,30.18,30.10,30.00,10,9,1,23,11,28,0.26,3,Rain-Thunderstorm,167
2013-8-25,95,86,77,73,71,69,79,64,49,30.04,29.99,29.95,10,10,8,22,13,28,0.00,0,,206
2013-8-26,96,87,78,75,72,70,79,62,45,30.02,29.93,29.86,10,10,9,18,9,23,0.00,1,,204
2013-8-27,96,85,73,77,73,70,87,68,49,29.88,29.81,29.77,10,10,10,15,6,17,0.00,1,,284
2013-8-28,88,79,69,72,70,68,100,77,53,30.02,29.98,29.89,10,6,0,12,4,15,T,3,Fog,62
2013-8-29,94,83,71,74,71,69,93,71,49,30.04,29.97,29.85,10,10,10,16,8,21,0.00,3,,165
2013-8-30,86,76,66,74,67,61,94,69,44,29.89,29.85,29.79,10,10,7,17,7,21,T,3,,27
2013-8-31,87,73,59,67,63,60,100,71,42,29.89,29.83,29.72,10,10,6,13,5,16,0.00,0,,140